Tracking 30746 objects as of 19-Jun-2025
HD Live streaming from Space Station
objects crossing your sky now

STARLINK-31874

Track STARLINK-31874 now!
10-day predictions
STARLINK-31874 is classified as:


NORAD ID: 60603
Int'l Code: 2024-150W
Perigee: 481.5 km
Apogee: 483.2 km
Inclination: 53.2 °
Period: 94.1 minutes
Semi major axis: 6853 km
RCS: Unknown
Launch date: August 20, 2024
Source: United States (US)
Launch site: AIR FORCE EASTERN TEST RANGE (AFETR)
Your satellite tracking list
Your tracking list is empty




NASA's NSSDC Master Catalog

Two Line Element Set (TLE):
1 60603U 24150W   25169.18129762 -.00000336  00000-0  79779-6 0  9994
2 60603  53.1588  95.6624 0001220  93.3959 266.7181 15.30195871 47543
Source of the keplerian elements: AFSPC